Location: Haliburton Scout Reserve
(45.0900°N, 78.3200°W)
Time: 17:20:47
(UTC-04:00)

JY1SAT - Pass Details

Date: 21 June 2024
Orbit: 536 x 549 km, 97.5° (Epoch: 11 July)

Event Time Altitude Azimuth Distance (km) Brightness Sun altitude
Exits shadow 22:01:31 - 162° (SSE) 1,930 ? -8.5°
Reaches altitude 10° 22:01:48 10° 162° (SSE) 1,813 ? -8.5°
Maximum altitude 22:05:43 79° 75° (ENE) 564 ? -9.0°
Drops below altitude 10° 22:09:41 10° 350° (N) 1,835 ? -9.5°
Sets 22:11:50 0° 349° (N) 2,736 ? -9.7°
